sat.trackr.live / text

‹ back to catalog

STARLINK-32369

NORAD 60917 · 2024-154Q

PAYLOAD ACTIVE UNKNOWN

§ Identity

Operator
Country
US
Launch date
2024-08-31
Launch site
AFETR
Launch vehicle
Mass (kg)
RCS (m²)

Purposes: comms

External: N2YO · Heavens-Above · Gunter

§ Orbital elements

Epoch: 2026-05-24T19:39:56.310336Z

Period
94.11 min
Inclination
53.1615°
Eccentricity
0.0001061
Mean motion
15.30195707 rev/d
Perigee alt
474.5 km
Apogee alt
476.0 km
Semi-major
6,853.4 km
B*
2.7006e-5
RAAN
290.0251°
Arg perigee
81.6223°
Mean anomaly
278.4898°
Rev number
9,799

§ Raw data

STARLINK-323691 60917U 24154Q   26144.81940174  .00000441  00000+0  27006-4 0  99972 60917  53.1615 290.0251 0001061  81.6223 278.4898 15.30195707 97993

JSON: /api/v1/satellites/60917 · /tle

For live sub-satellite position, see the globe view (requires WebGL).

§ Visibility from observer

Set your observer location to see the next 7 days of passes ≥ 10°. The values pass through the URL so the page stays shareable.

No JS? Fill the form by hand. The geolocation button needs JavaScript.